User: anonymous   Login
Location: Newark
(34.1333°N, 7.9667°W)
Time: 17:55:58
(UTC+00:00)
Language:

deb Explorer IX - Orbit

View from above orbital plane
View from above orbital plane
View from above satellite
View from above satellite

Ground track
Ground track

The orbit data is extracted from the following two-line orbital elements,

1 00085U 61004C   21168.61432064  .00002315  00000-0  50745-3 0  9993
2 00085  38.7713 316.3335 0384942  54.3790 309.2185 14.21782985983067
Epoch (UTC): 17 June 2021 14:44:37
Eccentricity: 0.0384942
inclination: 38.7713°
perigee height: 542 km
apogee height: 1096 km
right ascension of ascending node: 316.3335°
argument of perigee: 54.3790°
revolutions per day: 14.21782985
mean anomaly at epoch: 309.2185°
orbit number at epoch: 98306

The dashed part of the orbit path shows where the satellite is in the earth's shadow,  

DLR